{"data":{"norad_id":57175,"intl_designator":"2023-091K","name":"CUBEBEL 2 (EU11S)","alt_names":[],"object_type":"PAYLOAD","status":"ACTIVE","operator":null,"country":"BELA","launch_date":"2023-06-27","launch_site_code":"VOSTO","launch_vehicle":null,"mission":null,"orbit_class":"UNKNOWN","rcs_meters":null,"size_class":null,"mass_kg":null,"dimensions":null,"purposes":[],"wikipedia_slug":null,"has_3d_model":false,"image_url":null,"decayed_at":null,"tle_current":{"epoch":"2026-09-21T21:33:10.453824Z","epoch_age_seconds":82525,"freshness":"FRESH","line1":"1 57175U 23091K   26264.89803766  .00008675  00000+0  28984-3 0  9996","line2":"2 57175  97.4954 329.0728 0010565 127.9911 232.2286 15.31213932179094","mean_motion":15.31213932,"eccentricity":0.0010565,"inclination_deg":97.4954,"raan_deg":329.0728,"arg_perigee_deg":127.9911,"mean_anomaly_deg":232.2286,"bstar":0.00028984,"rev_number":17909,"period_min":94.043031473671,"perigee_km":464.9519521615,"apogee_km":479.42669167972,"semimajor_km":6850.3263219206,"source":"CELESTRAK","updated_at":"2026-09-22T09:00:26.074771Z"}}}